sat.trackr.live / text

‹ back to catalog

ONEWEB-0260

NORAD 48978 · 2021-060M

PAYLOAD ACTIVE UNKNOWN

§ Identity

Operator
Country
UK
Launch date
2021-07-01
Launch site
VOSTO
Launch vehicle
Mass (kg)
RCS (m²)

Purposes: comms

External: N2YO · Heavens-Above · Gunter

§ Orbital elements

Epoch: 2026-09-19T13:17:03.863616Z

Period
109.37 min
Inclination
87.9153°
Eccentricity
0.0002379
Mean motion
13.16593355 rev/d
Perigee alt
1,196.0 km
Apogee alt
1,199.6 km
Semi-major
7,575.9 km
B*
1.6992e-5
RAAN
210.0445°
Arg perigee
80.0291°
Mean anomaly
280.1108°
Rev number
25,202

§ Raw data

ONEWEB-02601 48978U 21060M   26262.55351694  .00000019  00000+0  16992-4 0  99912 48978  87.9153 210.0445 0002379  80.0291 280.1108 13.16593355252020

JSON: /api/v1/satellites/48978 · /tle

For live sub-satellite position, see the globe view (requires WebGL).

§ Visibility from observer

Set your observer location to see the next 7 days of passes ≥ 10°. The values pass through the URL so the page stays shareable.

No JS? Fill the form by hand. The geolocation button needs JavaScript.